EW7771 Weather Reports


time (UTC)temp
C
wind
direction
speed
KPH
gust
KPH
rain 1hr
cm
rain 24hr
cm
rain mn
cm
humidity
%
barometer
mb
20260503193933 25 147 0.0 3.2 0.00 0.00 0.00 55 1011.2
20260503193433 25 303 0.0 4.8 0.00 0.00 0.00 53 1011.3
20260503192932 25 300 0.0 4.8 0.00 0.00 0.00 52 1011.3
20260503192432 25 142 0.0 0.0 0.00 0.00 0.00 53 1011.5
20260503191932 25 355 0.0 0.0 0.00 0.00 0.00 52 1011.6
20260503191432 25 288 0.0 0.0 0.00 0.00 0.00 55 1011.6
20260503190931 25 0 0.0 0.0 0.00 0.00 0.00 57 1011.6
20260503190435 25 299 0.0 0.0 0.00 0.00 0.00 56 1011.7
20260503185933 25 116 0.0 1.6 0.00 0.00 0.00 55 1011.7
20260503185434 24 179 0.0 1.6 0.00 0.00 0.00 55 1011.8
20260503184933 24 322 0.0 3.2 0.00 0.00 0.00 56 1011.8
20260503184432 24 189 0.0 3.2 0.00 0.00 0.00 56 1011.8
20260503183932 24 292 0.0 0.0 0.00 0.00 0.00 60 1011.9
20260503183433 24 309 0.0 0.0 0.00 0.00 0.00 55 1012.0
20260503182933 24 173 0.0 0.0 0.00 0.00 0.00 58 1011.9
20260503182907 24 103 0.0 0.0 0.00 0.00 0.00 56 1012.1
20260503182159 23 175 0.0 0.0 0.00 0.00 0.00 56 1012.1
20260503181432 23 329 0.0 0.0 0.00 0.00 0.00 56 1012.1
20260503180930 23 312 0.0 0.0 0.00 0.00 0.00 59 1012.1
20260503180651 23 333 0.0 0.0 0.00 0.00 0.00 59 1012.1
20260503175939 23 331 0.0 0.0 0.00 0.00 0.00 59 1012.2
20260503175649 23 310 0.0 0.0 0.00 0.00 0.00 60 1012.3
20260503174929 23 216 0.0 0.0 0.00 0.00 0.00 60 1012.3
20260503174429 22 344 0.0 0.0 0.00 0.00 0.00 59 1012.4
20260503174158 22 279 0.0 0.0 0.00 0.00 0.00 59 1012.3
20260503173429 21 217 0.0 0.0 0.00 0.00 0.00 58 1012.4
20260503172927 21 202 0.0 0.0 0.00 0.00 0.00 60 1012.4
20260503172427 20 246 0.0 0.0 0.00 0.00 0.00 61 1012.5
20260503172151 20 295 0.0 1.6 0.00 0.00 0.00 68 1012.4
20260503171423 19 317 0.0 1.6 0.00 0.00 0.00 70 1012.5
20260503170920 18 82 0.0 0.0 0.00 0.00 0.00 71 1012.4
20260503170426 17 65 0.0 0.0 0.00 0.00 0.00 70 1012.5
20260503150718 10 161 0.0 0.0 0.00 0.00 0.00 95 1013.2
20260503150213 9 161 0.0 0.0 0.00 0.00 0.00 95 1013.2
20260503131045 8 182 0.0 0.0 0.00 0.00 0.00 94 1013.3
20260503130544 8 182 0.0 0.0 0.00 0.00 0.00 94 1013.3
20260503130301 8 182 0.0 0.0 0.00 0.00 0.00 94 1013.2
20260503110541 10 182 0.0 0.0 0.00 0.00 0.00 93 1013.5
20260503100201 10 182 0.0 0.0 0.00 0.00 0.00 93 1013.6
20260503090335 11 182 0.0 0.0 0.00 0.00 0.00 93 1013.7
20260503081233 12 182 0.0 3.2 0.00 0.00 0.00 93 1013.8
20260503080947 12 182 0.0 0.0 0.00 0.00 0.00 92 1013.8
20260503080223 12 182 0.0 0.0 0.00 0.00 0.00 92 1013.7
20260503072706 12 182 0.0 3.2 0.00 0.00 0.00 92 1013.6
20260503072203 12 182 0.0 0.0 0.00 0.00 0.00 92 1013.7
20260503071702 12 182 0.0 0.0 0.00 0.00 0.00 93 1013.7
20260503071208 13 181 0.0 0.0 0.00 0.00 0.00 93 1013.6
20260503070705 13 181 0.0 0.0 0.00 0.00 0.00 92 1013.6
20260503070157 13 181 0.0 0.0 0.00 0.00 0.00 92 1013.6
20260503060147 13 181 0.0 0.0 0.00 0.00 0.00 89 1013.5
20260503054650 14 181 0.0 0.0 0.00 0.00 0.00 88 1013.4
20260503054144 14 181 0.0 0.0 0.00 0.00 0.00 87 1013.5
20260503053644 14 181 0.0 0.0 0.00 0.00 0.00 87 1013.5
20260503053144 14 181 0.0 0.0 0.00 0.00 0.00 86 1013.5
20260503052644 15 181 0.0 0.0 0.00 0.00 0.00 86 1013.5
20260503052143 15 181 0.0 0.0 0.00 0.00 0.00 85 1013.5
20260503051643 15 181 0.0 0.0 0.00 0.00 0.00 85 1013.5
20260503051139 15 181 0.0 0.0 0.00 0.00 0.00 85 1013.5
20260503050649 15 181 0.0 0.0 0.00 0.00 0.00 84 1013.5
20260503050146 15 181 0.0 0.0 0.00 0.00 0.00 84 1013.5
20260503045640 15 181 0.0 0.0 0.00 0.00 0.00 83 1013.5
20260503045137 16 181 0.0 0.0 0.00 0.00 0.00 82 1013.5
20260503044634 16 181 0.0 0.0 0.00 0.00 0.00 82 1013.4
20260503044134 16 181 0.0 0.0 0.00 0.00 0.00 82 1013.4
20260503043859 16 181 0.0 0.0 0.00 0.00 0.00 81 1013.3
20260503043133 16 181 0.0 0.0 0.00 0.00 0.00 80 1013.3
20260503042633 17 181 0.0 0.0 0.00 0.00 0.00 80 1013.2
20260503042126 17 181 0.0 0.0 0.00 0.00 0.00 80 1013.2
20260503041620 17 181 0.0 0.0 0.00 0.00 0.00 79 1013.1
20260503041114 17 181 0.0 0.0 0.00 0.00 0.00 78 1013.1
20260503040608 17 181 0.0 0.0 0.00 0.00 0.00 78 1013.0
20260503040104 18 181 0.0 0.0 0.00 0.00 0.00 77 1012.9
20260503035556 18 181 0.0 0.0 0.00 0.00 0.00 77 1012.7
20260503035051 18 181 0.0 0.0 0.00 0.00 0.00 76 1012.6
20260503034544 18 181 0.0 0.0 0.00 0.00 0.00 75 1012.6
20260503034527 19 181 0.0 0.0 0.00 0.00 0.00 75 1012.5
20260503033534 19 181 0.0 0.0 0.00 0.00 0.00 74 1012.4
20260503033027 20 181 0.0 0.0 0.00 0.00 0.00 73 1012.3
20260503032520 20 181 0.0 0.0 0.00 0.00 0.00 71 1012.2
20260503032014 20 181 0.0 1.6 0.00 0.00 0.00 71 1012.1
20260503031510 20 181 0.0 1.6 0.00 0.00 0.00 67 1012.1
20260503031003 20 173 0.0 0.0 0.00 0.00 0.00 66 1012.0
20260503030456 20 168 0.0 1.6 0.00 0.00 0.00 67 1011.9
20260503025950 21 196 0.0 1.6 0.00 0.00 0.00 65 1011.8
20260503025449 21 140 0.0 0.0 0.00 0.00 0.00 67 1011.8
20260503024939 21 177 0.0 6.4 0.00 0.00 0.00 65 1011.7
20260503024433 21 221 0.0 6.4 0.00 0.00 0.00 65 1011.7
20260503023926 21 178 0.0 1.6 0.00 0.00 0.00 65 1011.7
20260503023652 21 179 0.0 1.6 0.00 0.00 0.00 65 1011.6
20260503022915 21 153 0.0 0.0 0.00 0.00 0.00 65 1011.5
20260503022409 21 160 0.0 0.0 0.00 0.00 0.00 65 1011.4
20260503021903 21 143 0.0 9.7 0.00 0.00 0.00 65 1011.4
20260503021357 21 149 0.0 9.7 0.00 0.00 0.00 63 1011.4
20260503020850 22 162 0.0 12.9 0.00 0.00 0.00 64 1011.4
20260503020344 22 151 0.0 12.9 0.00 0.00 0.00 63 1011.4
20260503015843 22 130 0.0 4.8 0.00 0.00 0.00 63 1011.4
20260503015329 22 150 0.0 3.2 0.00 0.00 0.00 63 1011.4
20260503014824 22 163 0.0 8.0 0.00 0.00 0.00 63 1011.4
20260503014316 22 185 0.0 8.0 0.00 0.00 0.00 62 1011.4
20260503013810 22 175 0.0 4.8 0.00 0.00 0.00 62 1011.4
20260503013304 22 180 0.0 1.6 0.00 0.00 0.00 63 1011.3
20260503012759 22 169 0.0 1.6 0.00 0.00 0.00 62 1011.3
20260503012252 22 184 0.0 6.4 0.00 0.00 0.00 63 1011.3
20260503012242 22 169 0.0 6.4 0.00 0.00 0.00 63 1011.3
20260503011504 22 175 0.0 1.6 0.00 0.00 0.00 63 1011.4
20260503010736 22 338 0.0 0.0 0.00 0.00 0.00 63 1011.3
20260503010228 22 241 0.0 1.6 0.00 0.00 0.00 63 1011.3
20260503005944 22 313 0.0 1.6 0.00 0.00 0.00 64 1011.3
20260503005216 22 95 0.0 1.6 0.00 0.00 0.00 62 1011.3
20260503004931 22 88 0.0 1.6 0.00 0.00 0.00 62 1011.4
20260503004206 23 148 0.0 0.0 0.00 0.00 0.00 61 1011.4
20260503003658 23 148 0.0 0.0 0.00 0.00 0.00 62 1011.4
20260503003420 23 180 0.0 0.0 0.00 0.00 0.00 62 1011.4
20260503002647 23 158 0.0 0.0 0.00 0.00 0.00 63 1011.5
20260503002143 23 159 0.0 0.0 0.00 0.00 0.00 62 1011.4
20260503001643 23 307 0.0 0.0 0.00 0.00 0.00 61 1011.5
20260503001143 23 348 0.0 0.0 0.00 0.00 0.00 62 1011.5
20260503000646 23 192 0.0 0.0 0.00 0.00 0.00 62 1011.5
20260503000143 23 167 0.0 0.0 0.00 0.00 0.00 60 1011.5
20260502235910 23 169 0.0 6.4 0.00 0.00 0.00 59 1011.6
20260502235141 23 176 0.0 6.4 0.00 0.00 0.00 59 1011.5
20260502234642 23 196 0.0 3.2 0.00 0.00 0.00 59 1011.6
20260502234401 23 306 0.0 3.2 0.00 0.00 0.00 58 1011.7
20260502233643 23 88 0.0 4.8 0.00 0.00 0.00 57 1011.7
20260502233149 24 234 0.0 4.8 0.00 0.00 0.00 58 1011.7
20260502232917 24 19 0.0 8.0 0.00 0.00 0.00 56 1011.8
20260502232148 24 77 0.0 8.0 0.00 0.00 0.00 55 1011.9
20260502231648 24 346 0.0 1.6 0.00 0.00 0.00 56 1011.9
20260502231403 24 230 0.0 1.6 0.00 0.00 0.00 55 1012.0
20260502230646 24 205 0.0 0.0 0.00 0.00 0.00 55 1012.0
20260502230142 24 137 0.0 0.0 0.00 0.00 0.00 55 1012.2
20260502225643 24 125 0.0 0.0 0.00 0.00 0.00 59 1012.2
20260502225143 24 148 0.0 0.0 0.00 0.00 0.00 57 1012.2
20260502224638 24 342 0.0 0.0 0.00 0.00 0.00 57 1012.4
20260502224138 23 9 0.0 0.0 0.00 0.00 0.00 57 1012.4
20260502223639 23 174 0.0 3.2 0.00 0.00 0.00 59 1012.5
20260502223402 23 296 0.0 3.2 0.00 0.00 0.00 57 1012.6
20260502222639 23 195 0.0 1.6 0.00 0.00 0.00 59 1012.6
20260502222139 23 164 0.0 0.0 0.00 0.00 0.00 56 1012.6
20260502221638 23 214 0.0 0.0 0.00 0.00 0.00 56 1012.7
20260502221137 23 186 0.0 0.0 0.00 0.00 0.00 58 1012.7
20260502220637 23 206 0.0 0.0 0.00 0.00 0.00 58 1012.8
20260502220138 23 23 0.0 1.6 0.00 0.00 0.00 57 1012.9
20260502215636 23 349 0.0 1.6 0.00 0.00 0.00 58 1012.9
20260502215137 23 278 0.0 1.6 0.00 0.00 0.00 62 1013.0
20260502214635 23 299 0.0 1.6 0.00 0.00 0.00 56 1013.0
20260502214134 23 299 0.0 0.0 0.00 0.00 0.00 57 1013.0
20260502213635 23 261 0.0 0.0 0.00 0.00 0.00 56 1013.1
20260502213134 23 317 0.0 0.0 0.00 0.00 0.00 60 1013.1
20260502212644 23 329 0.0 0.0 0.00 0.00 0.00 60 1013.2
20260502212137 22 336 0.0 0.0 0.00 0.00 0.00 60 1013.2
20260502211627 22 18 0.0 1.6 0.00 0.00 0.00 61 1013.2
20260502211125 22 134 0.0 1.6 0.00 0.00 0.00 61 1013.2
20260502210842 22 231 0.0 1.6 0.00 0.00 0.00 59 1013.3
20260502210112 22 334 0.0 1.6 0.00 0.00 0.00 60 1013.3
20260502205610 22 334 0.0 3.2 0.00 0.00 0.00 58 1013.3
20260502205057 22 307 0.0 3.2 0.00 0.00 0.00 61 1013.4
20260502204557 22 174 0.0 0.0 0.00 0.00 0.00 58 1013.4
20260502204049 22 186 0.0 0.0 0.00 0.00 0.00 60 1013.4
20260502203546 22 198 0.0 0.0 0.00 0.00 0.00 58 1013.5
20260502203037 22 164 0.0 0.0 0.00 0.00 0.00 57 1013.5
20260502202722 22 345 0.0 1.6 0.00 0.00 0.00 59 1013.5
20260502202621 22 136 0.0 0.0 0.00 0.00 0.00 59 1013.5
20260502201518 22 32 0.0 4.8 0.00 0.00 0.00 59 1013.6
20260502201237 22 235 0.0 4.8 0.00 0.00 0.00 59 1013.7
20260502200507 22 95 0.0 0.0 0.00 0.00 0.00 59 1013.8
20260502200001 22 285 0.0 0.0 0.00 0.00 0.00 60 1013.8
20260502195457 22 177 0.0 0.0 0.00 0.00 0.00 61 1014.0
20260502194949 21 289 0.0 0.0 0.00 0.00 0.00 62 1014.1